This is the latest recevied weather packets stored in our database for station/object KB3KBR-WX. If no packets are shown the sender has not sent any weather packets the latest 10 day(s).
| Time | Temp. | Humidity | Pressure | Rain* | Wind** | Luminosity | Snow |
|---|---|---|---|---|---|---|---|
| 1778043270 | 11.67° C | 94% | 1004.9 hPa | 0.51 mm | - | - | - |
| 1778042940 | 11.67° C | 94% | 1005 hPa | 0.51 mm | - | - | - |
| 1778042610 | 11.11° C | 94% | 1004.9 hPa | 0.51 mm | - | - | - |
| 1778042280 | 11.11° C | 94% | 1005.1 hPa | 0.51 mm | - | - | - |
| 1778041980 | 11.11° C | 94% | 1005.2 hPa | 0.25 mm | - | - | - |
| 1778041680 | 11.11° C | 94% | 1005.1 hPa | 0.25 mm | - | - | - |
| 1778041380 | 11.11° C | 94% | 1005.1 hPa | 0.25 mm | - | - | - |
| 1778041080 | 11.11° C | 94% | 1005 hPa | 0.25 mm | - | - | - |
| 1778040750 | 11.11° C | 94% | 1005.1 hPa | 0.25 mm | - | - | - |
| 1778040451 | 11.11° C | 94% | 1005 hPa | 0.25 mm | - | - | - |
| 1778040150 | 11.11° C | 94% | 1005 hPa | 0.51 mm | - | - | - |
| 1778039822 | 11.11° C | 93% | 1004.9 hPa | 0.51 mm | - | - | - |
| 1778039490 | 11.11° C | 93% | 1004.7 hPa | 0.51 mm | - | - | - |
| 1778039190 | 11.11° C | 94% | 1005 hPa | 0.51 mm | - | - | - |
| 1778038890 | 11.11° C | 93% | 1005.1 hPa | 0.76 mm | - | - | - |
| 1778038560 | 11.11° C | 93% | 1005.2 hPa | 0.76 mm | - | - | - |
| 1778038260 | 11.11° C | 93% | 1005.3 hPa | 1.02 mm | - | - | - |
| 1778037930 | 11.11° C | 93% | 1005.3 hPa | 1.02 mm | - | - | - |
| 1778037630 | 11.11° C | 93% | 1005.3 hPa | 2.03 mm | - | - | - |
| 1778037330 | 11.11° C | 93% | 1005.5 hPa | 2.29 mm | - | - | - |
| 1778037000 | 10.56° C | 93% | 1005.6 hPa | 2.79 mm | - | - | - |
| 1778036700 | 10.56° C | 93% | 1005.3 hPa | 2.79 mm | - | - | - |
| 1778036370 | 10.56° C | 93% | 1005.2 hPa | 3.05 mm | - | - | - |
| 1778036040 | 10.56° C | 93% | 1005.2 hPa | 3.56 mm | - | - | - |
| 1778035740 | 10.56° C | 93% | 1005.1 hPa | 5.33 mm | - | - | - |
* Rain latest hour (hover to see other rain measurements)
** Current wind speed in m/s (hover to see current wind gust speed)